Погода в Шаиме

Погода в Шаиме : погода сейчас, прогноз погоды и архив. Всё, что Вы хотите узнать о погоде в Шаиме!

Хотите узнать прогноз погоды в Шаиме? Тогда Вам сюда: Погода в Шаиме

Поиск расширенной информации на нашем сайте:

Другие новости

Новости СМИ2

Главная страница сайта

Новости сайта

03.07.2017

Напоминаем, что на нашем специализированном сайте Метеоцентр.Азия вы можете получить высокодетализированные автоматические прогнозы погоды по пунктам России, СНГ и мира в авиационном формате (включающие направление и скорость ветра, видимость, явления погоды, количество и форму облачности, нижнюю и верхнюю границу облачности).


Погода в Шаиме - сегодня

Время (UTC), дата Ветер
(°,м/с) 
Видим.   Явления Облачность Т
(°С)
Тd
(°С)
f(%) Тe
(°С)
Pmin
(гПа)
dP
(гПа)
Po
(мм)
O2
(г/м3)
Тmin Tmax R s Состояние
почвы
09 13.08.18 190 (Ю) 27000 м    8/5 1000 м верхняя 
[Cu hum|Ci fib]
+26 +13.2 45 +32  1005.8  -1  750  273           
12 13.08.18 200 (Ю) 27000 м    8/6 1000 м верхняя 
[Cu hum|Ci fib]
+27.5 +14.2 44 +35  1004.8  -1  749  271           
18 13.08.18 200 (Ю) 24000 м    3/0 верхняя 
[Ci fib]
+20.2 +15.8 76 +30  1004.1  0.4  749  277           
21 13.08.18 200 (Ю) 24000 м    4/0 верхняя 
[Ci fib]
+17.5 +13.4 77 +24  1004.2  749  281           
00 14.08.18 200 (Ю) 23000 м    5/3 1000 м верхняя 
[Sc|Ci fib]
+16.3 +12.7 79 +22  1003.8  -0.5  748  282           
03 14.08.18 200 (Ю) 25000 м    8/5 1000 м средняя, верхняя 
[Sc|Ac trans|Ci fib]
+18.9 +13.3 70 +25  1004.5  0.8  749  280  +16         
06 14.08.18 250 (З) 26000 м    8/0 средняя, верхняя 
[Ac trans|Ci fib]
+24.2 +12.5 48 +29  1005.3  749  275           
09 14.08.18 260 (З) 27000 м    10/4 1000 м средняя, верхняя 
[Sc|Ac trans|Ci fib]
+25.5 +8.5 34 +26  1006  0.6  750  275           
12 14.08.18 240 (ЮЗ) 25000 м    10/5 600 м кучево-дожд., средняя, верхняя 
[Cb cap|Ac trans|Ci fib]
+25.8 +8.3 33 +26  1005.4  -0.5  750  275           
18 14.08.18 220 (ЮЗ) 21000 м  слаб. ливневой дождь  9/9 600 м кучево-дожд. 
[Cb cap]
+17.5 +16.2 92 +30  1006.9  0.4  751  281           
21 14.08.18 210 (ЮЗ) 21000 м  {ливн. осадки}  9/9 600 м кучево-дожд. 
[Cb cap]
+16.4 +15.3 93 +27  1006.4  -0.5  750  282           
00 15.08.18 тихо ()   22000 м  {ливн. осадки}  9/9 600 м кучево-дожд. 
[Cb cap]
+16.2 +15.2 94 +25  1006.4  750  282           
03 15.08.18 320 (СЗ) 6000 м  слаб. ливневой дождь  10/10 300 м кучево-дожд. 
[Cb cap]
+16.1 +14.6 91 +24  1007.1  0.6  751  283  +15.9       
09 15.08.18 340 (С) 23000 м  {ливн. осадки}  10/10 600 м кучево-дожд. 
[Cb cap]
+17.7 +13.5 76 +24  1008.6  1.1  752  282           
12 15.08.18 360 (С) 25000 м  {ливн. осадки}  10/5 600 м кучево-дожд., средняя, верхняя 
[Cb cap|Ac trans|Ci fib]
+19.6 +12.4 63 +24  1009.3  0.7  752  280           
18 15.08.18 230 (ЮЗ) 25000 м    4/0 верхняя 
[Ci fib]
+11.7 +10.7 94 +15  1011  0.4  754  289           
21 15.08.18 320 (СЗ) 24000 м    3/0 верхняя 
[Ci fib]
+12.6 +9.6 82 +14  1011.2  0.1  754  289           
00 16.08.18 тихо ()   24000 м    5/3 600 м верхняя 
[Sc|Ci fib]
+8.3 +7.1 92 +8  1011.9  0.7  754  294           
03 16.08.18 320 (СЗ) 27000 м    4/3 1000 м средняя 
[Sc|Ac trans]
+14.1 +11.4 84 +18  1012.1  0.3  754  287  +7.6         
06 16.08.18 200 (Ю) 27000 м    8/3 600 м кучево-дожд., средняя, верхняя 
[Cb cap|Ac trans|Ci fib]
+20.6 +8.3 45 +21  1011.7  -0.3  754  281           
09 16.08.18 170 (Ю) 26000 м    8/8 600 м кучево-дожд. 
[Cb cap]
+20.5 +9.4 49 +21  1011.1  -0.6  754  281           
12 16.08.18 140 (ЮВ) 26000 м    10/8 600 м кучево-дожд., средняя, верхняя 
[Cb cap|Ac trans|Ci fib]
+19.8 +12.7 64 +26  1010.4  -0.7  753  281           
15 16.08.18 160 (Ю) 24000 м  {ливн. осадки}  10/8 600 м кучево-дожд., средняя, верхняя 
[Cb cap|Ac trans|Ci fib]
+14.3 +12.1 87 +19  1010.4  0.1  753  286    +21.9  0.7     
18 16.08.18 тихо ()   5000 м  слаб. ливневой дождь  9/9 600 м кучево-дожд. 
[Cb cap]
+13.5 +12.3 92 +18  1010.4  0.1  753  287           
21 16.08.18 120 (ЮВ) 24000 м  в посл. час ливневой дождь  9/9 600 м кучево-дожд. 
[Cb cap]
+13.1 +12.1 94 +18  1008.9  -1.5  752  287           
Время (UTC), дата Ветер
(°,м/с) 
Видим.   Явления Облачность Т
(°С)
Тd
(°С)
f(%) Тe
(°С)
Pmin
(гПа)
dP
(гПа)
Po
(мм)
O2
(г/м3)
Тmin Tmax R s Состояние
почвы

Для получения пояснительной информации подведите курсор к названию столбца.

ПОГОДА в Шаиме - архив

Всё, что Вы хотите узнать о погоде в Шаиме - удобно и подробно!

Выберите нужную дату (начиная с 1 января 2015* года) и нажмите кнопку "Найти".
Будут отображены архивные сводки погоды по пункту Шаим, начиная с указанной даты.


Отображать данные в формате CSV (для использования в таблицах Excel)


Внимание! Наш архив погоды предназначен исключительно для личного некоммерческого использования в познавательных целях. Если Вам необходимы официальные справки о состоянии погоды (для производственных, юридических, коммерческих и т.п. целей), обращайтесь в органы Росгидромета.

*Примечание: данная дата относится к архиву по метеостанциям СССР (Россия, СНГ, Балтия).
Архив по метеостанциям Зарубежной Европы и Азии (кроме Китая) хранится 10 дней, по другим регионам земного шара (Китай, Африка, Америка, Австралия, Океания) - 1 день.

Шаим - район местоположения метеостанции


Название, широта, долгота, высота метеостанции:
Шаим 60.3°ш. 64.2°д. 53 м над ур. моря [Российская Федерация]

Дополнительная информация

В oтличие oт бoльшинства пoгoдных сайтoв мы публикуем пoдрoбную метеoинфoрмацию в детальнoм прoфессиoнальнoм фoрмате.

Характеристики температуры и влажнoсти вoздуха измеряются на высoте 2 м в тени вдали oт зданий и деревьев.
Скoрoсть ветра измеряется на высoте 10 м (на урoвне рoста челoвека скoрoсть ветра ниже в 1.5-2 раза). Если метеoстанция нахoдится в гoрoде или в лесу, тo скoрoсть ветра занижена на 2-4 м/с пo сравнению с oткрытым местoм. Скoрoсть ветра над акватoриями крупных рек и oзёр, а также на вершинах хoлмoв на 2-5 м/с выше, чем в oбычных услoвиях.
Атмoсфернoе давление в разных тoчках местнoсти мoжет значительнo oтличаться oт давления на метеoстанции, в зависимoсти oт услoвий рельефа (при пoдъёме на 10 м давление пoнижается примернo на 1 мм рт.ст.).